sat.trackr.live / text

‹ back to catalog

STARLINK-6080

NORAD 56112 · 2023-046V

PAYLOAD ACTIVE UNKNOWN

§ Identity

Operator
Country
US
Launch date
2023-03-29
Launch site
AFETR
Launch vehicle
Mass (kg)
RCS (m²)

Purposes: comms

External: N2YO · Heavens-Above · Gunter

§ Orbital elements

Epoch: 2026-05-24T20:09:36.341280Z

Period
94.32 min
Inclination
43.0060°
Eccentricity
0.0001393
Mean motion
15.26727019 rev/d
Perigee alt
484.6 km
Apogee alt
486.6 km
Semi-major
6,863.7 km
B*
-4.9512e-5
RAAN
91.8446°
Arg perigee
283.3136°
Mean anomaly
76.7560°
Rev number
17,367

§ Raw data

STARLINK-60801 56112U 23046V   26144.84000395 -.00001587  00000+0 -49512-4 0  99932 56112  43.0060  91.8446 0001393 283.3136  76.7560 15.26727019173679

JSON: /api/v1/satellites/56112 · /tle

For live sub-satellite position, see the globe view (requires WebGL).

§ Visibility from observer

Set your observer location to see the next 7 days of passes ≥ 10°. The values pass through the URL so the page stays shareable.

No JS? Fill the form by hand. The geolocation button needs JavaScript.